EB2GLU-13 Weather Reports


Display with metric or nautical units.
time (UTC)temp
F
wind
direction
speed
MPH
gust
MPH
rain 1hr
in
rain 24hr
in
rain mn
in
humidity
%
barometer
mb
20260502160213 65 158 2.0 3.0 0.02 0.04 0.04 84 1014.5
20260502151213 69 169 4.0 8.0 0.00 0.02 0.02 69 1014.5
20260502130713 64 147 3.0 9.0 0.02 0.02 0.02 78 1015.7
20260502122942 61 163 2.0 10.0 0.02 0.02 0.02 86 1015.4
20260502121712 62 174 4.0 9.0 0.02 0.02 0.02 83 1015.9
20260502120442 65 167 2.0 11.0 0.00 0.00 0.00 79 1016.1
20260502115212 66 185 4.0 10.0 0.00 0.00 0.00 76 1016.5
20260502113942 70 109 4.0 8.0 0.00 0.00 0.00 66 1016.1
20260502112712 71 112 1.0 4.0 0.00 0.00 0.00 65 1016.7
20260502111442 70 173 2.0 10.0 0.00 0.00 0.00 66 1016.5
20260502110212 70 154 5.0 13.0 0.00 0.00 0.00 66 1016.1
20260502104942 70 157 3.0 8.0 0.00 0.00 0.00 65 1015.9
20260502103712 69 159 3.0 13.0 0.00 0.00 0.00 66 1016.0
20260502102442 69 158 3.0 15.0 0.00 0.00 0.00 65 1016.2
20260502101212 69 140 6.0 18.0 0.00 0.00 0.00 67 1016.5
20260502090942 68 174 4.0 19.0 0.00 0.00 0.00 68 1016.5
20260502070442 67 161 3.0 10.0 0.00 0.00 0.00 68 1016.3
20260502065212 67 152 3.0 18.0 0.00 0.00 0.00 68 1016.1
20260502063942 67 138 5.0 20.0 0.00 0.00 0.00 68 1016.2
20260502062712 66 167 5.0 15.0 0.00 0.00 0.00 68 1016.1
20260502061442 66 109 3.0 15.0 0.00 0.00 0.00 69 1015.8
20260502060212 66 166 5.0 19.0 0.00 0.00 0.00 69 1015.8
20260502054942 66 161 3.0 11.0 0.00 0.00 0.00 69 1016.1
20260502053712 66 143 3.0 9.0 0.00 0.00 0.00 69 1015.9
20260502052442 66 149 3.0 9.0 0.00 0.00 0.00 69 1016.4
20260502051212 66 165 5.0 13.0 0.00 0.00 0.00 69 1016.1
20260502045942 65 151 5.0 9.0 0.00 0.00 0.00 69 1017.0
20260502044712 66 158 1.0 8.0 0.00 0.00 0.00 69 1017.0
20260502043442 66 164 3.0 13.0 0.00 0.00 0.00 68 1017.2
20260502042212 66 150 3.0 12.0 0.00 0.00 0.00 68 1016.9
20260502040941 66 169 4.0 13.0 0.00 0.00 0.00 67 1017.1
20260502035712 66 184 6.0 12.0 0.00 0.00 0.00 67 1017.3
20260502034441 66 151 6.0 15.0 0.00 0.00 0.00 67 1017.2
20260502033211 67 140 9.0 17.0 0.00 0.00 0.00 66 1017.0
20260502031941 67 162 2.0 15.0 0.00 0.00 0.00 66 1017.1
20260502030711 67 141 3.0 11.0 0.00 0.00 0.00 65 1017.1
20260502025441 67 124 3.0 13.0 0.00 0.00 0.00 65 1017.2
20260502024211 67 157 5.0 10.0 0.00 0.00 0.00 64 1017.2
20260502022941 67 81 3.0 10.0 0.00 0.00 0.00 64 1017.3
20260502021711 67 92 0.0 12.0 0.00 0.00 0.00 64 1017.3
20260502020441 67 126 6.0 12.0 0.00 0.00 0.00 64 1017.3
20260502015211 67 164 3.0 8.0 0.00 0.00 0.00 64 1017.1
20260502013941 67 67 0.0 11.0 0.00 0.00 0.00 64 1016.9
20260502012711 67 106 4.0 12.0 0.00 0.00 0.00 65 1017.1
20260502011441 67 156 4.0 10.0 0.00 0.00 0.00 65 1017.1
20260502010211 66 161 4.0 8.0 0.00 0.00 0.00 66 1017.1
20260502004941 67 153 3.0 13.0 0.00 0.00 0.00 66 1017.5
20260502003711 67 162 3.0 9.0 0.00 0.00 0.00 66 1017.6
20260502002441 67 153 3.0 9.0 0.00 0.00 0.00 65 1017.8
20260502001211 67 158 3.0 6.0 0.00 0.00 0.00 66 1017.5
20260501235941 68 155 3.0 8.0 0.00 0.00 0.00 64 1017.9
20260501234711 68 144 3.0 10.0 0.00 0.00 0.00 63 1018.1
20260501233441 68 155 6.0 11.0 0.00 0.00 0.00 63 1017.9
20260501232211 69 155 4.0 18.0 0.00 0.00 0.00 63 1017.8
20260501230941 69 163 1.0 22.0 0.00 0.00 0.00 62 1017.7
20260501225711 69 145 5.0 15.0 0.00 0.00 0.00 61 1017.7
20260501224441 70 172 4.0 11.0 0.00 0.00 0.00 60 1017.8
20260501223211 69 143 7.0 12.0 0.00 0.00 0.00 60 1017.8
20260501221941 70 90 8.0 24.0 0.00 0.00 0.00 60 1017.7
20260501215441 70 149 3.0 12.0 0.00 0.00 0.00 62 1018.0
20260501214211 70 160 2.0 10.0 0.00 0.00 0.00 62 1018.1
20260501212941 70 145 3.0 18.0 0.00 0.00 0.00 63 1018.1
20260501211711 70 150 5.0 10.0 0.00 0.00 0.00 64 1017.8